STARLINK-31908, 59901

Orbit data source: Space-Track

STARLINK-31908, 59901 is a payload satellite owned by SpaceX/Seattle (US) in LEO that was launched on Tue, 28 May 2024 UTC via an FALCON 9 launch vehicle from the Air Force Eastern Test Range (AFETR). Payload-class satellites include a variety of spacecraft equipped with specific instruments for various scientific and technological missions. These include communications satellites like Starlink; space stations such as the ISS; scientific satellites like the Hubble; Earth observation satellites from companies like Planet Labs, Umbra, and HawkEye 360; GPS; miniature CubeSats for education and research; and military/defense satellites.

Loading next visibility...
Identifier
59901, 2024-100S
Orbit
LEO
Country
Flag of USUS
Related business
Manufacturer
SpaceX/Seattle
Mission
Operational Commercial Communications
Bus & Motor
STARLINK V2M, Unknown motor
Mass
730 kg wet, ~700 kg dry
Launch date (UTC)
2024-05-28 (2 years ago)
Launch vehicle
FALCON 9
Launch site
Air Force Eastern Test Range (AFETR)
Object type
Payload
Rocket body
Debris
Shape & HBR
Box + 2 Pan, 17.7 m
Radar Cross Section
33.884 m², Large (>1 m²)

Expand to show TLE details & history
Last TLE update: 1 day ago

TLE from 1 day ago
0 STARLINK-31908
1 59901U 24100S   25353.62604630  .00000046  00000-0  11190-4 0  9992
2 59901  42.9996 210.5025 0001244 268.2831  91.7878 15.27575132 88982
Epoch: 2025-12-19T15:01Z
TLE epoch observation values (Epoch: 2025-12-19T15:01:30.400Z)
Latitude
-0.00002°
Longitude
-103.33869°
Altitude
482.866 km
Speed
7.626 km/s
True Right ascension
14h 02m 00s
True Declination
0° 00' 00"
Sunlit
Object was in daylight at epoch
Visualization orbit readout
Latitude
Unknown
Longitude
Unknown
Altitude
Unknown
Speed
Unknown
Apparent Right ascension
Unknown
Apparent Declination
Unknown
Sunlit
N/A
Visualization observer readout
Local Sidereal Time
21:23:59
Azimuth
Unknown
Elevation
Unknown
Doppler factor
Unknown
Orbital elements
Apogee altitude
485.863 km
Perigee altitude
484.155 km
Semi-major axis
6,863.146 km
Eccentricity
0.00012
Inclination
42.9996°
RAAN
210.5025°
Arg. of periapsis
268.2831°
True anomaly
91.80205°
Mean anomaly
91.7878°
Eccentric anomaly
91.79492°
Mean motion
3.81732 °/min
Orbital period
94.31 mins
BSTAR
0.00001119
Loading maneuver chart data...
Computing Atmospheric mass density...
Loading historical data...
Loading historical data...
Loading historical data...
Loading historical data...
Loading historical data...
Loading historical data...
Loading historical data...

Documentation

Showing up to 5 results
|